User: anonymous   Login
Location: Unspecified
(0.0000°N, 0.0000°E)
Time: 08:47:39
(UTC+00:00)
Language:

GRACE-FO 2 - Orbit

View from above orbital plane
View from above orbital plane
View from above satellite
View from above satellite

Ground track
Ground track

The orbit data is extracted from the following two-line orbital elements,

1 43477U 18047B   20024.07370370 +.00000316  00000-0 +12958-4 0    02
2 43477  88.9986 157.3779 0020306 100.4972 339.5729 15.23966597 93089
Epoch (UTC): 24 January 2020 01:46:08
Eccentricity: 0.0020306
inclination: 88.9986°
perigee height: 480 km
apogee height: 508 km
right ascension of ascending node: 157.3779°
argument of perigee: 100.4972°
revolutions per day: 15.23966597
mean anomaly at epoch: 339.5729°
orbit number at epoch: 9308

The dashed part of the orbit path shows where the satellite is in the earth's shadow,  

DLR